YAMAL 601

Last updated on Thu Oct 30 2025 00:02:51 GMT+0000 (Coordinated Universal Time)

1 44307U 19031A 25302.48078443 .00000130 00000+0 00000+0 0 9994 2 44307 0.0103 229.8131 0002217 342.1243 48.2295 1.00272194 23608
UTC large
Height (km)
Speed (km/s)
/
Latitude / Longitude
Inclination (degrees)
Orbital Period (minutes)
Azimuth
Elevation
Range (km)
Doppler Factor

Next 0 passes for location: London (51.5072 / 0.1276)

Sorry there are no passes over London.